User: anonymous   Login
Location: Brno
(49.2000°N, 16.6330°E)
Time: 09:18:55
(UTC+01:00)
Language:

RESURS DK-1 - Orbit

View from above orbital plane
View from above orbital plane
View from above satellite
View from above satellite

Ground track
Ground track

The orbit data is extracted from the following two-line orbital elements,

1 29228U 06021A   15028.50502250  .00000813  00000-0  70731-4 0  6516
2 29228 069.9386 152.0242 0007881 247.3660 112.6641 15.01198428477383
Epoch (UTC): 28 January 2015 12:07:13
Eccentricity: 0.0007881
inclination: 69.9386°
perigee height: 558 km
apogee height: 568 km
right ascension of ascending node: 152.0242°
argument of perigee: 247.3660°
revolutions per day: 15.01198428
mean anomaly at epoch: 112.6641°
orbit number at epoch: 47738

The dashed part of the orbit path shows where the satellite is in the earth's shadow,  

DLR